Regional Weather Roundup
Issued by NWS Sioux Falls, SD

Home | Current Version | Previous Version | Graphics & Text | Print | Product List | Glossary Off
Versions: 1 2 3 4 5 6 7 8 9 10 11 12 13 14 15 16 17 18 19 20 21 22 23 24 25 26 27 28 29 30 31 32 33 34 35 36 37 38 39 40 41 42 43 44 45 46 47 48 49 50

000
ASUS43 KFSD 020102
RWRFSD

WEATHER ROUNDUP FOR SE SOUTH DAKOTA/SW MINNESOTA/NW IOWA
NATIONAL WEATHER SERVICE SIOUX FALLS SD
800 PM CDT WED JUL 01 2015

NOTE: "FAIR" INDICATES FEW OR NO CLOUDS BELOW 12,000 FEET WITH NO
SIGNIFICANT WEATHER AND OR OBSTRUCTIONS TO VISIBILITY.


SDZ038>040-050-052>070-020200-
SOUTHEAST SOUTH DAKOTA

CITY           SKY/WX    TMP DP  RH WIND       PRES   REMARKS
BROOKINGS      PTSUNNY   68  54  60 E16       29.97S
CHAMBERLAIN    MOSUNNY   77  67  71 E8        29.91R
HURON          LGT RAIN  71  67  87 E6        29.92R FOG
MADISON        FAIR      72  59  64 E12       29.95S
MITCHELL       MOSUNNY   74  67  78 E10       29.92R
SIOUX FALLS    MOSUNNY   72  60  66 E12       29.94F
WINNER         FAIR      80  65  59 E9        29.92R
YANKTON        PTSUNNY   73  64  73 E10       29.91R
$$

MNZ071-072-080-081-089-090-097-098-020200-
SOUTHWEST MINNESOTA

CITY           SKY/WX    TMP DP  RH WIND       PRES   REMARKS
FAIRMONT       CLEAR     64  52  63 NE6       29.99R
JACKSON        CLOUDY    66  54  63 E7        30.00S
LUVERNE        SUNNY     73  52  46 E10       29.97S
MARSHALL       CLOUDY    70  52  52 SE12      29.97S
MONTEVIDEO     SUNNY     68  55  64 S6        30.00S
PIPESTONE      MOSUNNY   68  55  64 SE12G17   29.98S
REDWOOD FALLS  CLEAR     68  54  60 E6        29.99R
TRACY          CLOUDY    68  56  65 E5        30.00R
WINDOM         PTCLDY    66  55  68 CALM      30.00R
WORTHINGTON    CLOUDY    66  54  63 E10       29.99S
$$

IAZ001>003-012>014-020>022-031-032-NEZ013-014-SDZ071-020200-
NORTHWEST IOWA

CITY           SKY/WX    TMP DP  RH WIND       PRES   REMARKS
DENISON        CLOUDY    70  66  88 E6        29.91S
ESTHERVILLE    MOCLDY    65  54  67 E7        29.99R
SIOUX CITY     CLOUDY    74  64  71 E10       29.92R
SPENCER        PTCLDY    69  55  60 E13       29.98R
$$

ABBREVIATIONS USED IN REMARKS
   TC - TEMPERATURE IN CELSIUS
  WCI - WIND CHILL INDEX
   HX - HEAT INDEX
  VSB - VISIBILITY



USA.gov is the U.S. government's official web portal to all federal, state and local government web resources and services.